Location: Étouvelles
(49.5207°N, 3.5808°E)
Time: 00:17:10
(UTC+00:00)

Cosmos 1328 - Pass Details

Date: 03 February 2023
Orbit: 518 x 543 km, 82.5° (Epoch: 01 April)

Event Time Altitude Azimuth Distance (km) Brightness Sun altitude
Rises 17:46:39 0° 191° (S) 2,699 7.7 -10.4°
Reaches altitude 10° 17:48:49 10° 192° (SSW) 1,808 6.8 -10.7°
Maximum altitude 17:52:47 81° 279° (W) 555 3.9 -11.4°
Drops below altitude 10° 17:56:47 10° 8° (N) 1,808 6.3 -12.0°
Sets 17:58:56 0° 10° (N) 2,699 7.1 -12.3°
